• In Portugal
  • List of Countries
  • For 7 days
  • Water Temperature
  • Satellite Maps
  • Weather Map
  • Weather Widgets
  • user-avatar
    Login

    Hourly Weather Dori

    Today, 24 February, Saturday

    Time Temperature Precipitation Wind Pressure Humidity
    00:00 +35°C° 0 mm 4 mps 730 mmHg 28%
    01:00 +34°C° 0 mm 4 mps 730 mmHg 33%
    02:00 +34°C° 0 mm 4 mps 730 mmHg 38%
    03:00 +33°C° 0 mm 4 mps 730 mmHg 42%
    04:00 +33°C° 0 mm 4 mps 730 mmHg 46%
    05:00 +32°C° 0 mm 4 mps 730 mmHg 49%
    06:00 +32°C° 0 mm 5 mps 730 mmHg 53%
    07:00 +33°C° 0.1 mm 6 mps 731 mmHg 49%
    08:00 +33°C° 0.1 mm 7 mps 732 mmHg 46%
    09:00 +34°C° 0.1 mm 9 mps 732 mmHg 43%
    10:00 +35°C° 0.1 mm 8 mps 732 mmHg 39%
    11:00 +37°C° 0.1 mm 8 mps 732 mmHg 36%
    12:00 +38°C° 0.1 mm 8 mps 732 mmHg 32%
    13:00 +39°C° 0 mm 8 mps 732 mmHg 30%
    14:00 +39°C° 0 mm 7 mps 731 mmHg 28%
    15:00 +40°C° 0 mm 7 mps 731 mmHg 26%
    16:00 +39°C° 0 mm 6 mps 731 mmHg 28%
    17:00 +38°C° 0 mm 6 mps 731 mmHg 29%
    18:00 +36°C° 0 mm 5 mps 731 mmHg 31%
    19:00 +36°C° 0 mm 4 mps 732 mmHg 32%
    20:00 +35°C° 0 mm 3 mps 732 mmHg 32%
    21:00 +34°C° 0 mm 2 mps 733 mmHg 33%
    22:00 +34°C° 0 mm 2 mps 733 mmHg 34%
    23:00 +34°C° 0 mm 2 mps 733 mmHg 34%

    Tomorrow, 25 February, Sunday

    Time Temperature Precipitation Wind Pressure Humidity
    00:00 +32°C° 0 mm 2 mps 733 mmHg 35%
    01:00 +33°C° 0 mm 3 mps 733 mmHg 32%
    02:00 +31°C° 0 mm 3 mps 733 mmHg 30%
    03:00 +30°C° 0 mm 4 mps 733 mmHg 27%
    04:00 +30°C° 0.1 mm 4 mps 733 mmHg 28%
    05:00 +29°C° 0.1 mm 4 mps 733 mmHg 29%
    06:00 +29°C° 0.1 mm 4 mps 733 mmHg 29%
    07:00 +29°C° 0 mm 5 mps 734 mmHg 30%
    08:00 +30°C° 0 mm 5 mps 734 mmHg 30%
    09:00 +32°C° 0 mm 6 mps 735 mmHg 31%
    10:00 +34°C° 0 mm 6 mps 735 mmHg 28%
    11:00 +36°C° 0 mm 6 mps 734 mmHg 25%
    12:00 +39°C° 0 mm 6 mps 734 mmHg 22%
    13:00 +39°C° 0 mm 5 mps 733 mmHg 22%
    14:00 +40°C° 0 mm 5 mps 732 mmHg 22%
    15:00 +40°C° 0 mm 4 mps 732 mmHg 21%
    16:00 +40°C° 0 mm 4 mps 732 mmHg 22%
    17:00 +38°C° 0 mm 4 mps 732 mmHg 22%
    18:00 +38°C° 0 mm 4 mps 732 mmHg 22%
    19:00 +37°C° 0 mm 4 mps 732 mmHg 23%
    20:00 +36°C° 0 mm 4 mps 733 mmHg 24%
    21:00 +35°C° 0 mm 4 mps 733 mmHg 24%
    22:00 +34°C° 0 mm 4 mps 733 mmHg 25%
    23:00 +33°C° 0 mm 4 mps 733 mmHg 26%

    Day after tomorrow, 26 February, Monday

    Time Temperature Precipitation Wind Pressure Humidity
    00:00 +33°C° 0 mm 4 mps 733 mmHg 26%
    01:00 +32°C° 0 mm 4 mps 732 mmHg 27%
    02:00 +31°C° 0 mm 3 mps 732 mmHg 28%
    03:00 +30°C° 0 mm 3 mps 732 mmHg 29%
    04:00 +30°C° 0 mm 3 mps 732 mmHg 30%
    05:00 +29°C° 0 mm 3 mps 732 mmHg 31%
    06:00 +29°C° 0 mm 3 mps 732 mmHg 32%
    07:00 +32°C° 0 mm 4 mps 733 mmHg 29%
    08:00 +33°C° 0 mm 4 mps 734 mmHg 26%
    09:00 +35°C° 0 mm 5 mps 735 mmHg 24%
    10:00 +36°C° 0 mm 4 mps 735 mmHg 22%
    11:00 +37°C° 0 mm 4 mps 734 mmHg 21%
    12:00 +38°C° 0 mm 3 mps 734 mmHg 19%
    13:00 +39°C° 0 mm 3 mps 733 mmHg 19%
    14:00 +39°C° 0 mm 2 mps 732 mmHg 18%
    15:00 +40°C° 0 mm 2 mps 732 mmHg 18%
    16:00 +39°C° 0 mm 2 mps 732 mmHg 18%
    17:00 +39°C° 0 mm 2 mps 732 mmHg 19%
    18:00 +38°C° 0 mm 2 mps 732 mmHg 19%
    19:00 +37°C° 0 mm 2 mps 732 mmHg 20%
    20:00 +37°C° 0 mm 3 mps 733 mmHg 20%
    21:00 +36°C° 0 mm 3 mps 733 mmHg 21%
    22:00 +35°C° 0 mm 3 mps 733 mmHg 21%
    23:00 +35°C° 0 mm 3 mps 733 mmHg 22%

    27 February, Tuesday

    Time Temperature Precipitation Wind Pressure Humidity
    00:00 +34°C° 0 mm 3 mps 733 mmHg 22%
    01:00 +34°C° 0 mm 3 mps 732 mmHg 23%
    02:00 +33°C° 0 mm 3 mps 732 mmHg 23%
    03:00 +33°C° 0 mm 3 mps 732 mmHg 24%
    04:00 +31°C° 0 mm 3 mps 732 mmHg 25%
    05:00 +31°C° 0 mm 3 mps 732 mmHg 25%
    06:00 +30°C° 0 mm 3 mps 732 mmHg 26%
    07:00 +33°C° 0 mm 4 mps 733 mmHg 23%
    08:00 +35°C° 0 mm 5 mps 733 mmHg 20%
    09:00 +37°C° 0 mm 5 mps 734 mmHg 18%
    10:00 +39°C° 0 mm 5 mps 734 mmHg 16%
    11:00 +41°C° 0 mm 5 mps 733 mmHg 15%
    12:00 +42°C° 0 mm 4 mps 733 mmHg 14%
    13:00 +42°C° 0 mm 4 mps 732 mmHg 14%
    14:00 +43°C° 0 mm 4 mps 731 mmHg 13%
    15:00 +43°C° 0 mm 3 mps 731 mmHg 13%
    16:00 +43°C° 0 mm 3 mps 731 mmHg 14%
    17:00 +42°C° 0 mm 3 mps 731 mmHg 14%
    18:00 +40°C° 0 mm 3 mps 732 mmHg 15%
    19:00 +39°C° 0 mm 3 mps 732 mmHg 16%
    20:00 +38°C° 0 mm 3 mps 733 mmHg 17%
    21:00 +37°C° 0 mm 3 mps 733 mmHg 18%
    22:00 +36°C° 0 mm 3 mps 733 mmHg 18%
    23:00 +35°C° 0 mm 3 mps 733 mmHg 18%

    28 February, Wednesday

    Time Temperature Precipitation Wind Pressure Humidity
    00:00 +34°C° 0 mm 3 mps 733 mmHg 19%
    01:00 +34°C° 0 mm 3 mps 733 mmHg 19%
    02:00 +33°C° 0 mm 3 mps 732 mmHg 19%
    03:00 +33°C° 0 mm 3 mps 732 mmHg 19%
    04:00 +31°C° 0 mm 3 mps 732 mmHg 20%
    05:00 +30°C° 0 mm 3 mps 733 mmHg 20%
    06:00 +30°C° 0 mm 3 mps 733 mmHg 20%
    07:00 +33°C° 0 mm 4 mps 734 mmHg 18%
    08:00 +35°C° 0 mm 5 mps 734 mmHg 16%
    09:00 +37°C° 0 mm 5 mps 735 mmHg 14%
    10:00 +40°C° 0 mm 6 mps 735 mmHg 13%
    11:00 +42°C° 0 mm 6 mps 734 mmHg 11%
    12:00 +44°C° 0 mm 6 mps 734 mmHg 10%
    13:00 +45°C° 0 mm 6 mps 733 mmHg 10%
    14:00 +45°C° 0 mm 6 mps 732 mmHg 10%
    15:00 +45°C° 0 mm 5 mps 732 mmHg 10%
    16:00 +43°C° 0 mm 5 mps 732 mmHg 10%
    17:00 +42°C° 0 mm 4 mps 732 mmHg 11%
    18:00 +41°C° 0 mm 4 mps 732 mmHg 11%
    19:00 +40°C° 0 mm 4 mps 732 mmHg 12%
    20:00 +37°C° 0 mm 4 mps 733 mmHg 13%
    21:00 +36°C° 0 mm 4 mps 733 mmHg 13%
    22:00 +36°C° 0 mm 4 mps 733 mmHg 13%
    23:00 +35°C° 0 mm 4 mps 733 mmHg 14%

    1 March, Thursday

    Time Temperature Precipitation Wind Pressure Humidity
    00:00 +34°C° 0 mm 4 mps 733 mmHg 14%
    01:00 +34°C° 0 mm 4 mps 733 mmHg 15%
    02:00 +33°C° 0 mm 4 mps 733 mmHg 15%
    03:00 +33°C° 0 mm 4 mps 733 mmHg 16%
    04:00 +32°C° 0 mm 4 mps 733 mmHg 16%
    05:00 +32°C° 0 mm 4 mps 733 mmHg 17%
    06:00 +30°C° 0 mm 4 mps 733 mmHg 18%
    07:00 +33°C° 0 mm 6 mps 734 mmHg 16%
    08:00 +35°C° 0 mm 7 mps 734 mmHg 14%
    09:00 +39°C° 0 mm 8 mps 735 mmHg 12%
    10:00 +40°C° 0 mm 8 mps 734 mmHg 11%
    11:00 +43°C° 0 mm 8 mps 734 mmHg 10%
    12:00 +44°C° 0 mm 7 mps 734 mmHg 9%
    13:00 +45°C° 0 mm 7 mps 733 mmHg 9%
    14:00 +45°C° 0 mm 7 mps 732 mmHg 9%
    15:00 +45°C° 0 mm 6 mps 732 mmHg 8%
    16:00 +44°C° 0 mm 6 mps 732 mmHg 9%
    17:00 +42°C° 0 mm 5 mps 732 mmHg 9%
    18:00 +41°C° 0 mm 4 mps 732 mmHg 9%
    19:00 +38°C° 0 mm 4 mps 732 mmHg 10%
    20:00 +37°C° 0 mm 3 mps 733 mmHg 10%
    21:00 +36°C° 0 mm 3 mps 733 mmHg 11%
    22:00 +35°C° 0 mm 3 mps 733 mmHg 11%
    23:00 +34°C° 0 mm 3 mps 733 mmHg 11%
    Show more